Terminal Aerodrome Forecast
Issued by NWS

Home | Current Version | Previous Version | Text Only | Print | Product List | Glossary On
Versions: 1 2 3 4 5 6 7 8 9 10 11 12 13
000
FTUS46 KSTO 020520
TAFMHR
TAF
KMHR 020520Z 0206/0306 15005KT P6SM SKC
      TEMPO 0213/0216 SCT010
     FM021800 20007KT P6SM FEW250=

USA.gov is the U.S. government's official web portal to all federal, state and local government web resources and services.